This demonstration page uses our WeatherBlox Daily Observations layout. Learn more.

Left ArrowRight Arrow

Hourly Observations for December 30, 2021

Temp ( °F °C ) Dew Point ( °F °C ) Humidity (%) Winds ( mph kmh ) Pressure ( in mb ) Visibility ( mi km ) Precip ( " mm )
12:59 am 00:59 Cloudy with Mist and Fog 54 12.2 54 12.2 100 100 Calm 29.86 1011 5 8 0.01 0.25
1:59 am 01:59 Cloudy with Mist and Fog 53 11.7 53 11.7 100 100 N 13 20 29.88 1012 5 8 0.00 0.00
2:59 am 02:59 Cloudy with Mist and Fog 52 11.1 52 11.1 100 100 NNE 9 15 29.88 1012 4 6 0.01 0.25
3:59 am 03:59 Cloudy 53 11.7 53 11.7 100 100 E 8 13 29.85 1011 7 11 0.00 0.00
4:59 am 04:59 Cloudy with Mist and Fog 53 11.7 53 11.7 100 100 E 12 19 29.84 1010 6 10 0.00 0.00
5:59 am 05:59 Cloudy with Mist and Fog 53 11.7 53 11.7 100 100 N 6 9 29.87 1012 3 5 0.00 0.00
6:59 am 06:59 Cloudy with Light Rain 52 11.1 52 11.1 100 100 NNE 8 13 29.88 1012 3 5 0.01 0.25
7:59 am 07:59 Cloudy with Mist and Fog 52 11.1 52 11.1 100 100 N 3 6 29.89 1012 3 5 0.00 0.00
8:39 am 08:39 Cloudy with Fog 52 11.1 52 11.1 100 100 NNE 6 9 29.90 1013 1 2 0.00 0.00
8:59 am 08:59 Cloudy with Fog 52 11.1 52 11.1 100 100 NNE 6 9 29.90 1013 1 2 0.00 0.00
9:59 am 09:59 Cloudy with Fog 53 11.7 53 11.7 100 100 N 7 11 29.93 1014 1 2 0.00 0.00
10:59 am 10:59 Cloudy with Fog 51 10.6 51 10.6 100 100 N 8 13 29.93 1014 1 2 0.00 0.00
11:36 am 11:36 Mostly Cloudy with Fog 51 10.6 51 10.6 100 100 N 10 17 29.93 1014 1 2 0.00 0.00
11:59 am 11:59 Mostly Cloudy with Fog 51 10.6 51 10.6 100 100 NNE 10 17 29.93 1013 1 2 0.00 0.00
12:59 pm 12:59 Mostly Cloudy with Fog 51 10.6 51 10.6 100 100 NNE 10 17 29.91 1013 1 2 0.00 0.00
1:59 pm 13:59 Mostly Cloudy with Fog 51 10.6 51 10.6 100 100 NNE 7 11 29.93 1014 1 2 0.00 0.00
2:59 pm 14:59 Mostly Cloudy with Fog 51 10.6 51 10.6 100 100 NNE 3 6 29.93 1014 1 2 0.00 0.00
3:59 pm 15:59 Cloudy with Fog 51 10.6 51 10.6 100 100 Calm 29.93 1014 1 2 0.00 0.00
4:59 pm 16:59 Cloudy with Fog 52 11.1 52 11.1 100 100 Calm 29.93 1014 1 2 0.00 0.00
5:59 pm 17:59 Cloudy with Fog 52 11.1 52 11.1 100 100 Calm 29.94 1014 1 2 0.00 0.00
6:59 pm 18:59 Mostly Cloudy with Fog 52 11.1 52 11.1 100 100 Calm 29.94 1014 1 2 0.00 0.00
7:59 pm 19:59 Mostly Cloudy with Fog 52 11.1 52 11.1 100 100 ENE 3 6 29.93 1014 1 2 0.00 0.00
8:59 pm 20:59 Mostly Cloudy with Fog 51 10.6 51 10.6 100 100 NE 3 6 29.93 1014 1 2 0.00 0.00
9:49 pm 21:49 Mostly Cloudy with Fog 52 11.1 52 11.1 100 100 Calm 29.95 1014 1 2 0.00 0.00
9:59 pm 21:59 Mostly Cloudy with Fog 52 11.1 52 11.1 100 100 Calm 29.95 1014 1 2 0.00 0.00
10:50 pm 22:50 Cloudy with Mist and Fog 52 11.1 52 11.1 100 100 Calm 29.95 1014 1 2 0.00 0.00
10:59 pm 22:59 Cloudy with Mist and Fog 52 11.1 52 11.1 100 100 Calm 29.94 1014 1 2 0.00 0.00
11:07 pm 23:07 Cloudy with Mist and Fog 52 11.1 52 11.1 100 100 N 3 6 29.94 1014 4 6 0.00 0.00
11:20 pm 23:20 Cloudy with Mist and Fog 52 11.1 52 11.1 100 100 NNE 5 7 29.93 1014 2 3 0.00 0.00
11:23 pm 23:23 Cloudy with Mist and Fog 52 11.1 52 11.1 100 100 Calm 29.94 1014 1 2 0.00 0.00
11:32 pm 23:32 Cloudy with Mist and Fog 52 11.1 52 11.1 100 100 Calm 29.94 1014 2 3 0.00 0.00
11:41 pm 23:41 Cloudy with Mist and Fog 52 11.1 52 11.1 100 100 NE 5 7 29.94 1014 4 6 0.00 0.00
11:55 pm 23:55 Cloudy with Mist and Fog 52 11.1 52 11.1 100 100 Calm 29.94 1014 2 3 0.00 0.00

Powered by AerisWeather